User: anonymous   Login
Location: Chatham
(39.6760°N, 89.7040°W)
Time: 18:18:34
(UTC-06:00)
Language:

NOSS 3-1 (C) - Orbit

View from above orbital plane
View from above orbital plane
View from above satellite
View from above satellite

Ground track
Ground track

The orbit data is extracted from the following two-line orbital elements,

1 26907U 01040C   15023.23193855 0.00000000  00000-0  00000-0 0    09
2 26907  63.4213 105.7794 0293000 358.3316   1.6684 13.41219274    00
Epoch (UTC): 23 January 2015 05:33:59
Eccentricity: 0.0293000
inclination: 63.4213°
perigee height: 885 km
apogee height: 1324 km
right ascension of ascending node: 105.7794°
argument of perigee: 358.3316°
revolutions per day: 13.41219274
mean anomaly at epoch: 1.6684°
orbit number at epoch: 0

The dashed part of the orbit path shows where the satellite is in the earth's shadow,  

DLR